[[{"header":{"parameterUnit":"m.s-1","parameterCategory":1,"la1":30.2992,"la2":30.254,"lo1":-89.0895,"lo2":-89.0443,"dy":0.0025,"dx":0.0025,"nx":19,"ny":19,"refTime":"2026-04-09T21:00:00:Z","depth":0,"parameterNumber":2,"parameterNumberName":"U-component_of_WINDS"},"data":[0,0,0,-3.5061,-3.5061,-3.5026,-3.5025,-3.5018,-3.5018,0,0,0,0,0,0,0,0,0,0,0,-3.5091,-3.5092,-3.5061,-3.5061,-3.5026,-3.5025,-3.5018,-3.5018,0,0,0,0,0,0,0,0,0,0,0,-3.5091,-3.5092,-3.5092,-3.5061,-3.5026,-3.5025,-3.5018,-3.5032,0,0,0,0,0,0,0,0,0,0,-3.506,-3.5105,-3.5091,-3.5092,-3.5061,-3.5026,-3.5025,-3.5032,-3.5031,-3.5049,0,-3.5068,0,-3.5043,-3.502,-3.502,0,0,0,-3.5046,-3.5106,-3.5079,-3.5093,-3.5061,-3.5026,-3.5037,-3.5031,-3.503,-3.5048,-3.5067,-3.5066,-3.5043,-3.502,-3.502,-3.5171,-3.5173,0,0,-3.5048,-3.5096,-3.508,-3.508,-3.5084,-3.5039,-3.5037,-3.503,-3.5055,-3.5067,-3.5066,-3.5043,-3.502,-3.502,-3.517,-3.5172,0,0,0,-3.5064,-3.5098,-3.507,-3.5081,-3.5072,-3.5038,-3.5036,-3.5055,-3.5042,-3.5065,-3.5043,-3.502,-3.5021,-3.5168,-3.5171,-3.5287,0,0,0,-3.5064,-3.5106,-3.5071,-3.51,-3.5073,-3.5062,-3.5062,-3.5042,-3.504,-3.5043,-3.502,-3.5021,-3.5167,-3.5169,-3.528,-3.5334,0,0,0,-3.5087,-3.5109,-3.511,-3.5103,-3.5089,-3.5061,-3.5047,-3.5041,-3.5027,-3.502,-3.5021,-3.5166,-3.5169,-3.5274,-3.5324,-3.5391,0,0,0,-3.5125,-3.5211,-3.5113,-3.5202,-3.509,-3.5132,-3.5047,-3.5076,-3.5083,-3.502,-3.5167,-3.517,-3.5272,-3.5318,-3.5385,-3.5457,-3.5491,0,0,-3.526,-3.5229,-3.5278,-3.5189,-3.5261,-3.5134,-3.5224,-3.5185,-3.5141,-3.5165,-3.5168,-3.5282,-3.5323,-3.5389,-3.5659,-3.5686,0,0,0,-3.5337,-3.5373,-3.5382,-3.5392,-3.5365,-3.5348,-3.5291,-3.5278,-3.5296,-3.5162,-3.5321,-3.5344,-3.5381,-3.5414,-3.5437,-3.5468,-3.5187,-3.5186,-3.5186,-3.5597,-3.5538,-3.5616,-3.5555,-3.5566,-3.5508,-3.5513,-3.5486,-3.5421,-3.546,-3.5467,-3.5638,-3.5678,-3.5695,-3.5728,-3.5498,-3.5499,-3.5499,-3.5499,-3.5793,-3.5837,-3.5752,-3.5798,-3.5737,-3.5776,-3.5727,-3.5681,-3.5711,-3.5626,-3.5656,-3.5572,-3.5726,-3.5753,-3.5508,-3.5506,-3.5505,-3.5504,-3.5504,-3.5959,-3.597,-3.5953,-3.5965,-3.5981,-3.5916,-3.595,-3.5892,-3.5837,-3.5867,-3.5871,-3.5869,-3.5863,-3.5873,-3.5873,-3.5874,-3.5874,-3.5875,-3.5875,-3.6139,-3.6116,-3.6151,-3.6134,-3.6136,-3.6131,-3.6078,-3.6079,-3.6066,-3.6021,-3.6021,-3.5957,-3.5751,-3.5703,-3.5884,-3.5882,-3.5881,-3.588,-3.588,-3.6363,-3.6304,-3.6358,-3.6361,-3.634,-3.6363,-3.6289,-3.6298,-3.629,-3.6311,-3.624,-3.6097,-3.6061,-3.6042,-3.6002,-3.6249,-3.6249,-3.6249,-3.6249,-3.6506,-3.6482,-3.6527,-3.6536,-3.6537,-3.6478,-3.6547,-3.651,-3.6462,-3.6456,-3.6411,-3.6352,-3.6336,-3.631,-3.6285,-3.6247,-3.6551,-3.6552,-3.6552,-3.6643,-3.6618,-3.6685,-3.6637,-3.6618,-3.6605,-3.667,-3.6687,-3.662,-3.6563,-3.645,-3.6438,-3.6342,-3.6313,-3.6254,-3.6217,-3.6145,0,0]},{"header":{"parameterUnit":"m.s-1","parameterCategory":1,"la1":30.2992,"la2":30.254,"lo1":-89.0895,"lo2":-89.0443,"dy":0.0025,"dx":0.0025,"nx":19,"ny":19,"refTime":"2026-04-09T21:00:00:Z","depth":0,"parameterNumber":3,"parameterNumberName":"V-component_of_WINDS"},"data":[0,0,0,1.6605,1.6605,1.6611,1.6611,1.6608,1.6607,0,0,0,0,0,0,0,0,0,0,0,1.6597,1.6597,1.6605,1.6605,1.6611,1.6611,1.6608,1.6607,0,0,0,0,0,0,0,0,0,0,0,1.6597,1.6597,1.6597,1.6605,1.6611,1.6611,1.6608,1.6607,0,0,0,0,0,0,0,0,0,0,1.6602,1.659,1.6597,1.6597,1.6605,1.6611,1.6611,1.6607,1.6607,1.66,0,1.6594,0,1.6601,1.6607,1.6607,0,0,0,1.6608,1.659,1.6597,1.6597,1.6605,1.6611,1.6609,1.6607,1.6607,1.66,1.6594,1.6595,1.6601,1.6607,1.6607,1.6561,1.656,0,0,1.6608,1.6595,1.6597,1.6597,1.6597,1.6609,1.6609,1.6607,1.6599,1.6594,1.6595,1.6601,1.6607,1.6606,1.6561,1.6561,0,0,0,1.6604,1.6594,1.6602,1.6597,1.6599,1.6609,1.6609,1.6599,1.6603,1.6595,1.6601,1.6606,1.6606,1.6562,1.6561,1.6528,0,0,0,1.6604,1.6592,1.6601,1.6593,1.6599,1.6599,1.6601,1.6603,1.6603,1.6601,1.6606,1.6606,1.6562,1.6561,1.653,1.6513,0,0,0,1.6598,1.6592,1.6591,1.6592,1.6595,1.66,1.6603,1.6603,1.6607,1.6607,1.6606,1.6562,1.6561,1.6531,1.6516,1.6495,0,0,0,1.6588,1.656,1.659,1.6562,1.6595,1.658,1.6604,1.6593,1.6589,1.6606,1.6562,1.6561,1.6532,1.6517,1.6497,1.6474,1.6464,0,0,1.6546,1.6555,1.654,1.6566,1.6543,1.658,1.6552,1.6561,1.6573,1.6564,1.6563,1.6529,1.6516,1.6496,1.6418,1.641,0,0,0,1.6522,1.651,1.6507,1.6504,1.6511,1.6516,1.6531,1.6534,1.6528,1.6566,1.6518,1.6511,1.65,1.6489,1.6482,1.6472,1.6557,1.6557,1.6557,1.644,1.6459,1.6434,1.6454,1.645,1.6467,1.6466,1.6473,1.6491,1.648,1.6476,1.6427,1.6414,1.6409,1.6398,1.6468,1.6468,1.6468,1.6468,1.6378,1.6363,1.6392,1.6378,1.6397,1.6385,1.6401,1.6415,1.6406,1.6431,1.6422,1.6444,1.6399,1.6391,1.6466,1.6466,1.6466,1.6467,1.6467,1.6323,1.6319,1.6326,1.6324,1.632,1.6342,1.6332,1.6351,1.6368,1.636,1.6357,1.6357,1.6358,1.6358,1.6358,1.6358,1.6357,1.6357,1.6357,1.6262,1.6271,1.6261,1.6269,1.627,1.6273,1.6292,1.6293,1.6298,1.6312,1.6312,1.633,1.6393,1.6407,1.6355,1.6355,1.6355,1.6356,1.6356,1.6185,1.6207,1.6191,1.6192,1.6203,1.6197,1.6224,1.6224,1.6228,1.6222,1.6245,1.6289,1.6299,1.6304,1.6315,1.6242,1.6242,1.6242,1.6242,1.6137,1.6146,1.6134,1.6134,1.6137,1.616,1.6141,1.6156,1.6174,1.6178,1.6192,1.621,1.6215,1.6221,1.6229,1.6239,1.6148,1.6148,1.6148,1.6089,1.61,1.6079,1.61,1.611,1.6118,1.6101,1.6099,1.6125,1.6145,1.618,1.6184,1.6213,1.6222,1.6237,1.6248,1.6268,0,0]}]]